ETD964 OOMS-OMAA

Flight info

Callsign ETD964
Flight time 0h 38m
Altitude 20000
Route MCT N718 ITRAX P899 ROVOS
Aircraft A321/M-SDE3FGHIRWY/LB1

Departure

Time 2026-05-04 13:49
Airport Muscat International Airport (OOMS)

Arrival

Time 2026-05-04 14:27
Airport Zayed International Airport (OMAA)
Time Latitude Longitude Altitude Speed Heading
2026-05-04 13:49 23.73103 58.12250 9681 ft 266 kts 282°
2026-05-04 13:49 23.73527 58.10281 10266 ft 268 kts 283°
2026-05-04 13:49 23.73958 58.08284 10830 ft 272 kts 283°
2026-05-04 13:49 23.74388 58.06284 11369 ft 276 kts 283°
2026-05-04 13:50 23.74832 58.04226 11929 ft 281 kts 284°
2026-05-04 13:50 23.75278 58.02138 12484 ft 285 kts 284°
2026-05-04 13:50 23.75732 58.00020 13044 ft 289 kts 285°
2026-05-04 13:50 23.76195 57.97873 13591 ft 293 kts 285°
2026-05-04 13:51 23.76662 57.95696 14095 ft 296 kts 285°
2026-05-04 13:51 23.77134 57.93506 14627 ft 298 kts 285°
2026-05-04 13:51 23.77608 57.91294 15167 ft 300 kts 285°
2026-05-04 13:51 23.78087 57.89062 15698 ft 303 kts 286°
2026-05-04 13:52 23.79042 57.84578 16758 ft 308 kts 286°
2026-05-04 13:52 23.79525 57.82291 17282 ft 310 kts 286°
2026-05-04 13:52 23.80016 57.79986 17814 ft 313 kts 287°
2026-05-04 13:53 23.80512 57.77664 18288 ft 315 kts 287°
2026-05-04 13:53 23.81010 57.75330 18745 ft 317 kts 286°
2026-05-04 13:53 23.81514 57.72972 19222 ft 319 kts 286°
2026-05-04 13:54 23.82531 57.68208 19766 ft 336 kts 285°
2026-05-04 13:54 23.83074 57.65653 19767 ft 354 kts 285°
2026-05-04 13:54 23.84239 57.60197 19739 ft 388 kts 285°
2026-05-04 13:55 23.84853 57.57292 19722 ft 394 kts 285°
2026-05-04 13:55 23.86084 57.51461 19713 ft 394 kts 285°
2026-05-04 13:55 23.86700 57.48547 19707 ft 394 kts 285°
2026-05-04 13:56 23.87315 57.45634 19704 ft 394 kts 285°
2026-05-04 13:56 23.87928 57.42718 19704 ft 394 kts 285°
2026-05-04 13:56 23.89147 57.36922 19707 ft 395 kts 285°
2026-05-04 13:57 23.89760 57.33996 19706 ft 396 kts 285°
2026-05-04 13:57 23.90375 57.31064 19710 ft 396 kts 285°
2026-05-04 13:58 23.92219 57.22270 19713 ft 396 kts 285°
2026-05-04 13:58 23.93444 57.16419 19718 ft 395 kts 285°
2026-05-04 13:58 23.94056 57.13486 19720 ft 395 kts 285°
2026-05-04 13:59 23.94656 57.10613 19716 ft 395 kts 285°
2026-05-04 13:59 23.95259 57.07728 19712 ft 395 kts 285°
2026-05-04 13:59 23.96484 57.01824 19723 ft 408 kts 285°
2026-05-04 14:00 23.97123 56.98754 19726 ft 421 kts 284°
2026-05-04 14:00 23.98449 56.92361 19732 ft 434 kts 284°
2026-05-04 14:00 23.99115 56.89142 19731 ft 434 kts 284°
2026-05-04 14:01 23.99778 56.85925 19732 ft 434 kts 284°
2026-05-04 14:01 24.00441 56.82708 19730 ft 434 kts 284°
2026-05-04 14:01 24.01771 56.76270 19727 ft 434 kts 284°
2026-05-04 14:02 24.02432 56.73063 19728 ft 423 kts 284°
2026-05-04 14:02 24.03052 56.70042 19731 ft 402 kts 284°
2026-05-04 14:02 24.03655 56.67102 19722 ft 394 kts 284°
2026-05-04 14:02 24.04256 56.64179 19733 ft 394 kts 284°
2026-05-04 14:03 24.04854 56.61258 19735 ft 394 kts 284°
2026-05-04 14:03 24.05453 56.58326 19734 ft 394 kts 284°
2026-05-04 14:03 24.06052 56.55402 19738 ft 394 kts 284°
2026-05-04 14:03 24.06652 56.52478 19746 ft 394 kts 284°
2026-05-04 14:04 24.07839 56.46652 19768 ft 394 kts 284°
2026-05-04 14:04 24.08433 56.43726 19764 ft 394 kts 284°
2026-05-04 14:04 24.09021 56.40839 19765 ft 394 kts 284°
2026-05-04 14:05 24.10211 56.34993 19775 ft 394 kts 284°
2026-05-04 14:05 24.10804 56.32066 19779 ft 394 kts 284°
2026-05-04 14:05 24.11395 56.29148 19784 ft 392 kts 284°
2026-05-04 14:06 24.11986 56.26227 19779 ft 393 kts 284°
2026-05-04 14:06 24.12579 56.23304 19781 ft 394 kts 284°
2026-05-04 14:06 24.13168 56.20384 19784 ft 393 kts 284°
2026-05-04 14:06 24.13748 56.17500 19781 ft 394 kts 284°
2026-05-04 14:07 24.14337 56.14579 19779 ft 393 kts 284°
2026-05-04 14:07 24.14927 56.11659 19782 ft 393 kts 284°
2026-05-04 14:07 24.15516 56.08737 19780 ft 392 kts 284°
2026-05-04 14:07 24.16103 56.05814 19774 ft 393 kts 284°
2026-05-04 14:08 24.16688 56.02898 19779 ft 392 kts 284°
2026-05-04 14:08 24.17275 55.99979 19773 ft 394 kts 284°
2026-05-04 14:08 24.17861 55.97059 19777 ft 393 kts 284°
2026-05-04 14:08 24.18448 55.94138 19777 ft 393 kts 284°
2026-05-04 14:09 24.19610 55.88304 19776 ft 393 kts 283°
2026-05-04 14:09 24.20192 55.85386 19771 ft 391 kts 283°
2026-05-04 14:10 24.21320 55.79781 18801 ft 374 kts 285°
2026-05-04 14:10 24.21971 55.77018 17985 ft 375 kts 287°
2026-05-04 14:10 24.22648 55.74258 17293 ft 372 kts 287°
2026-05-04 14:10 24.23310 55.71553 16732 ft 365 kts 287°
2026-05-04 14:11 24.23962 55.68885 16116 ft 360 kts 287°
2026-05-04 14:11 24.25250 55.63591 14790 ft 355 kts 287°
2026-05-04 14:11 24.25875 55.61004 14259 ft 350 kts 285°
2026-05-04 14:12 24.26202 55.58386 13820 ft 345 kts 272°
2026-05-04 14:12 24.26045 55.55807 13537 ft 334 kts 266°
2026-05-04 14:12 24.25554 55.50815 13006 ft 331 kts 266°
2026-05-04 14:13 24.25317 55.48316 12752 ft 329 kts 266°
2026-05-04 14:13 24.25087 55.45826 12520 ft 328 kts 266°
2026-05-04 14:13 24.24862 55.43347 12278 ft 325 kts 267°
2026-05-04 14:13 24.24640 55.40883 11991 ft 324 kts 267°
2026-05-04 14:14 24.24421 55.38462 11587 ft 322 kts 267°
2026-05-04 14:14 24.23981 55.33619 10765 ft 317 kts 267°
2026-05-04 14:14 24.23762 55.31226 10575 ft 306 kts 267°
2026-05-04 14:15 24.23359 55.26793 9934 ft 287 kts 268°
2026-05-04 14:15 24.22971 55.22496 8996 ft 280 kts 268°
2026-05-04 14:16 24.22593 55.18346 8463 ft 263 kts 268°
2026-05-04 14:16 24.22414 55.16383 8175 ft 256 kts 268°
2026-05-04 14:17 24.22062 55.12540 7468 ft 253 kts 269°
2026-05-04 14:17 24.21887 55.10630 7142 ft 252 kts 269°
2026-05-04 14:17 24.21545 55.06922 6486 ft 250 kts 270°
2026-05-04 14:18 24.21384 55.05052 6180 ft 249 kts 269°
2026-05-04 14:18 24.21033 55.01280 5659 ft 250 kts 269°
2026-05-04 14:19 24.20743 54.97505 5605 ft 247 kts 278°
2026-05-04 14:19 24.21297 54.95808 5456 ft 232 kts 306°
2026-05-04 14:19 24.22284 54.94431 5201 ft 229 kts 311°
2026-05-04 14:19 24.23297 54.93111 5003 ft 223 kts 312°
2026-05-04 14:20 24.24297 54.91832 4729 ft 220 kts 313°
2026-05-04 14:20 24.25262 54.90567 4410 ft 219 kts 310°
2026-05-04 14:20 24.26203 54.89253 4064 ft 220 kts 309°
2026-05-04 14:21 24.28075 54.86614 3505 ft 217 kts 309°
2026-05-04 14:21 24.28985 54.85331 3347 ft 208 kts 309°
2026-05-04 14:21 24.29848 54.84114 3149 ft 197 kts 309°
2026-05-04 14:21 24.30677 54.82945 2987 ft 193 kts 309°
2026-05-04 14:22 24.31510 54.81769 2967 ft 197 kts 308°
2026-05-04 14:22 24.32298 54.80657 2981 ft 169 kts 309°
2026-05-04 14:22 24.32962 54.79720 2856 ft 143 kts 308°
2026-05-04 14:22 24.33543 54.78900 2690 ft 139 kts 308°
2026-05-04 14:23 24.34724 54.77233 2357 ft 138 kts 307°
2026-05-04 14:23 24.35314 54.76400 2195 ft 137 kts 307°
2026-05-04 14:23 24.35901 54.75571 2013 ft 137 kts 309°
2026-05-04 14:24 24.36479 54.74755 1836 ft 137 kts 310°
2026-05-04 14:24 24.37059 54.73936 1664 ft 136 kts 309°
2026-05-04 14:24 24.37637 54.73119 1496 ft 135 kts 309°
2026-05-04 14:24 24.38212 54.72306 1327 ft 135 kts 309°
2026-05-04 14:25 24.38778 54.71508 1153 ft 134 kts 309°
2026-05-04 14:25 24.39926 54.69916 797 ft 133 kts 306°
2026-05-04 14:25 24.40488 54.69110 640 ft 133 kts 304°
2026-05-04 14:26 24.41034 54.68293 461 ft 133 kts 310°
2026-05-04 14:26 24.41598 54.67491 292 ft 132 kts 312°
2026-05-04 14:26 24.42176 54.66707 134 ft 132 kts 310°
2026-05-04 14:26 24.42707 54.65975 82 ft 109 kts 308°
2026-05-04 14:27 24.43043 54.65490 83 ft 51 kts 308°
2026-05-04 14:27 24.43184 54.65293 85 ft 49 kts 308°
2026-05-04 14:27 24.43452 54.64912 82 ft 47 kts 308°
2026-05-04 14:27 24.43641 54.64650 83 ft 31 kts 307°
2026-05-04 14:28 24.43749 54.64525 83 ft 24 kts 326°
2026-05-04 14:28 24.43885 54.64446 85 ft 23 kts 339°
2026-05-04 14:28 24.44023 54.64383 87 ft 19 kts 334°
2026-05-04 14:28 24.44108 54.64297 83 ft 5 kts 330°
2026-05-04 14:29 24.44207 54.64370 83 ft 9 kts 38°
2026-05-04 14:29 24.44334 54.64364 83 ft 14 kts 307°
2026-05-04 14:30 24.44378 54.64301 82 ft 12 kts 308°
2026-05-04 14:30 24.44490 54.64226 82 ft 11 kts 339°
2026-05-04 14:30 24.44610 54.64174 83 ft 9 kts 339°
2026-05-04 14:31 24.44641 54.64162 82 ft 6 kts 341°
2026-05-04 14:31 24.44717 54.64190 83 ft 6 kts 71°
2026-05-04 14:32 24.44733 54.64247 86 ft 1 kts 72°
2026-05-04 14:32 24.44735 54.64252 85 ft 2 kts 73°
2026-05-04 14:32 24.44735 54.64253 85 ft 0 kts 73°